Weather History for KMOX - February, 2014

Change the Weather History Date:

Saturday, February 22, 2014

  Actual Average Record
Temperature  
Mean Temperature 10 °F -  
Max Temperature 17 °F 26 °F 44 °F (1998)
Min Temperature 3 °F 11 °F -16 °F (2015)
Degree Days  
Heating Degree Days 55    
Moisture  
Dew Point 2 °F    
Average Humidity 73    
Maximum Humidity 85    
Minimum Humidity 62    
Precipitation  
Precipitation 0.00 in - - ()
Sea Level Pressure  
Sea Level Pressure 29.99 in    
Wind  
Wind Speed 16 mph (NW)    
Max Wind Speed 23 mph    
Max Gust Speed 29 mph    
Visibility 10 miles    
Events      
Averages and records for this station are not official NWS values.
T = Trace of Precipitation, MM = Missing Value Source: NWS Daily Summary

Daily Weather History Graph

Daily Weather History Graph

Search for Another Location

Airport or City:

Trip Planner

Search our weather history database for the weather conditions in past years. The results will help you decide how hot, cold, wet, or windy it might be!

Date:

Astronomy

Feb. 22, 2014 Rise Set
Actual Time 7:14 AM CST 6:01 PM CST
Civil Twilight 6:44 AM CST 6:31 PM CST
Nautical Twilight 6:09 AM CST 7:05 PM CST
Astronomical Twilight 5:35 AM CST 7:39 PM CST
Moon 1:17 AM CST (2/22) 11:04 AM CST (2/22)
Length of Visible Light 11h 46m
Length of Day
10h 46m
Waning Gibbous, 50% of the Moon is Illuminated
Feb 22
Waning Gibbous
Mar 1
New
Mar 8
First Quarter
Mar 16
Full
Mar 23
Last Quarter

Hourly Weather History & Observations

Time (CST) Temp. Windchill Dew Point Humidity Pressure Visibility Wind Dir Wind Speed Gust Speed Precip Events Conditions
12:17 AM 8.6 °F -8.9 °F 1.4 °F 73% 29.82 in 10.0 mi NW 16.1 mph - N/A   Clear
12:37 AM 6.8 °F -10.0 °F 1.4 °F 79% 29.83 in 10.0 mi WNW 13.8 mph - N/A   Clear
12:57 AM 6.8 °F -9.3 °F 1.4 °F 79% 29.83 in 10.0 mi NW 12.7 mph - N/A   Clear
1:17 AM 6.8 °F -10.0 °F 1.4 °F 79% 29.85 in 10.0 mi WNW 13.8 mph - N/A   Clear
1:37 AM 6.8 °F -8.6 °F -0.4 °F 72% 29.85 in 10.0 mi WNW 11.5 mph - N/A   Clear
1:57 AM 6.8 °F -9.3 °F -0.4 °F 72% 29.85 in 10.0 mi WNW 12.7 mph 17.3 mph N/A   Clear
2:17 AM 5.0 °F -12.3 °F -0.4 °F 78% 29.86 in 10.0 mi WNW 13.8 mph - N/A   Clear
2:37 AM 5.0 °F -13.6 °F -0.4 °F 78% 29.86 in 10.0 mi WNW 16.1 mph - N/A   Clear
2:57 AM 5.0 °F -12.3 °F -0.4 °F 78% 29.86 in 10.0 mi WNW 13.8 mph 19.6 mph N/A   Clear
3:17 AM 5.0 °F -13.0 °F -0.4 °F 78% 29.87 in 10.0 mi WNW 15.0 mph - N/A   Clear
3:37 AM 5.0 °F -13.0 °F -0.4 °F 78% 29.87 in 10.0 mi WNW 15.0 mph - N/A   Clear
3:57 AM 3.2 °F -16.5 °F -0.4 °F 85% 29.87 in 10.0 mi NW 17.3 mph - N/A   Clear
4:17 AM 3.2 °F -17.1 °F -2.2 °F 78% 29.88 in 10.0 mi WNW 18.4 mph - N/A   Clear
4:37 AM 3.2 °F -16.5 °F -2.2 °F 78% 29.88 in 10.0 mi NW 17.3 mph - N/A   Clear
4:57 AM 3.2 °F -15.9 °F -2.2 °F 78% 29.89 in 10.0 mi NW 16.1 mph - N/A   Clear
5:17 AM 3.2 °F -15.9 °F -2.2 °F 78% 29.90 in 10.0 mi WNW 16.1 mph - N/A   Clear
5:37 AM 3.2 °F -16.5 °F -2.2 °F 78% 29.91 in 10.0 mi NW 17.3 mph - N/A   Clear
5:57 AM 3.2 °F -15.9 °F -2.2 °F 78% 29.92 in 10.0 mi WNW 16.1 mph - N/A   Clear
6:17 AM 3.2 °F -15.9 °F -2.2 °F 78% 29.93 in 10.0 mi WNW 16.1 mph - N/A   Clear
6:37 AM 3.2 °F -16.5 °F -2.2 °F 78% 29.93 in 10.0 mi NW 17.3 mph - N/A   Clear
6:57 AM 3.2 °F -15.3 °F -2.2 °F 78% 29.92 in 10.0 mi NW 15.0 mph - N/A   Clear
7:17 AM 3.2 °F -14.6 °F -2.2 °F 78% 29.93 in 10.0 mi NW 13.8 mph - N/A   Clear
7:37 AM 3.2 °F -15.9 °F -2.2 °F 78% 29.94 in 10.0 mi WNW 16.1 mph - N/A   Clear
7:57 AM 3.2 °F -15.9 °F -2.2 °F 78% 29.95 in 10.0 mi NW 16.1 mph - N/A   Clear
8:17 AM 5.0 °F -13.6 °F -2.2 °F 72% 29.96 in 10.0 mi WNW 16.1 mph - N/A   Clear
8:37 AM 6.8 °F -11.8 °F -0.4 °F 72% 29.96 in 10.0 mi WNW 17.3 mph - N/A   Clear
8:57 AM 6.8 °F -12.4 °F -0.4 °F 72% 29.97 in 10.0 mi NW 18.4 mph 23.0 mph N/A   Clear
9:17 AM 8.6 °F -10.5 °F -0.4 °F 67% 29.97 in 10.0 mi NW 19.6 mph 25.3 mph N/A   Clear
9:37 AM 8.6 °F -10.0 °F 1.4 °F 73% 29.97 in 10.0 mi NW 18.4 mph - N/A   Clear
9:57 AM 8.6 °F -9.5 °F 1.4 °F 73% 29.98 in 10.0 mi WNW 17.3 mph - N/A   Clear
10:17 AM 10.4 °F -7.7 °F 1.4 °F 67% 29.97 in 10.0 mi WNW 18.4 mph - N/A   Clear
10:37 AM 10.4 °F -7.7 °F 1.4 °F 67% 29.97 in 10.0 mi NW 18.4 mph - N/A   Clear
10:57 AM 12.2 °F -5.3 °F 3.2 °F 67% 29.98 in 10.0 mi NW 18.4 mph - N/A   Clear
11:17 AM 12.2 °F -4.8 °F 3.2 °F 67% 29.98 in 10.0 mi NW 17.3 mph 21.9 mph N/A   Clear
11:37 AM 12.2 °F -5.8 °F 3.2 °F 67% 29.99 in 10.0 mi NW 19.6 mph 25.3 mph N/A   Clear
11:57 AM 14.0 °F -3.4 °F 5.0 °F 67% 29.99 in 10.0 mi NW 19.6 mph 25.3 mph N/A   Clear
12:17 PM 14.0 °F -4.3 °F 5.0 °F 67% 29.99 in 10.0 mi NW 21.9 mph - N/A   Clear
12:37 PM 15.8 °F -1.5 °F 6.8 °F 68% 29.99 in 10.0 mi WNW 20.7 mph - N/A   Clear
12:57 PM 15.8 °F -1.5 °F 6.8 °F 68% 29.99 in 10.0 mi WNW 20.7 mph - N/A   Clear
1:17 PM 15.8 °F -2.3 °F 6.8 °F 68% 29.99 in 10.0 mi NW 23.0 mph 28.8 mph N/A   Clear
1:37 PM 15.8 °F -1.1 °F 6.8 °F 68% 29.99 in 10.0 mi NW 19.6 mph 25.3 mph N/A   Clear
1:57 PM 15.8 °F -1.1 °F 6.8 °F 68% 30.00 in 10.0 mi NW 19.6 mph 25.3 mph N/A   Clear
2:17 PM 17.6 °F 1.3 °F 8.6 °F 68% 30.00 in 10.0 mi NW 19.6 mph - N/A   Clear
2:37 PM 17.6 °F 2.2 °F 8.6 °F 68% 30.01 in 10.0 mi NW 17.3 mph 26.5 mph N/A   Scattered Clouds
2:57 PM 17.6 °F 1.3 °F 8.6 °F 68% 30.00 in 10.0 mi NW 19.6 mph 25.3 mph N/A   Scattered Clouds
3:17 PM 17.6 °F 2.7 °F 8.6 °F 68% 30.01 in 10.0 mi NW 16.1 mph 27.6 mph N/A   Clear
3:37 PM 17.6 °F 2.7 °F 6.8 °F 63% 30.01 in 10.0 mi NW 16.1 mph 24.2 mph N/A   Clear
3:57 PM 17.6 °F 0.5 °F 6.8 °F 63% 30.01 in 10.0 mi NW 21.9 mph 26.5 mph N/A   Clear
4:17 PM 17.6 °F 0.9 °F 6.8 °F 63% 30.01 in 10.0 mi NW 20.7 mph 25.3 mph N/A   Clear
4:37 PM 17.6 °F 0.9 °F 6.8 °F 63% 30.02 in 10.0 mi NW 20.7 mph 26.5 mph N/A   Clear
4:57 PM 15.8 °F -1.1 °F 6.8 °F 68% 30.02 in 10.0 mi NW 19.6 mph 24.2 mph N/A   Clear
5:17 PM 15.8 °F -1.1 °F 5.0 °F 62% 30.03 in 10.0 mi NW 19.6 mph - N/A   Clear
5:37 PM 15.8 °F 0.3 °F 5.0 °F 62% 30.04 in 10.0 mi NW 16.1 mph - N/A   Clear
5:57 PM 14.0 °F -0.8 °F 6.8 °F 73% 30.05 in 10.0 mi NW 13.8 mph - N/A   Clear
6:17 PM 12.2 °F -1.8 °F 6.8 °F 79% 30.05 in 10.0 mi NW 11.5 mph - N/A   Clear
6:37 PM 12.2 °F -3.1 °F 5.0 °F 73% 30.06 in 10.0 mi NW 13.8 mph 19.6 mph N/A   Clear
6:57 PM 12.2 °F -3.1 °F 5.0 °F 73% 30.07 in 10.0 mi NW 13.8 mph - N/A   Clear
7:17 PM 12.2 °F -3.1 °F 5.0 °F 73% 30.08 in 10.0 mi NW 13.8 mph - N/A   Clear
7:37 PM 10.4 °F -4.1 °F 5.0 °F 79% 30.08 in 10.0 mi NW 11.5 mph - N/A   Clear
7:57 PM 10.4 °F -5.4 °F 3.2 °F 73% 30.09 in 10.0 mi NW 13.8 mph - N/A   Clear
8:17 PM 10.4 °F -4.8 °F 3.2 °F 73% 30.10 in 10.0 mi WNW 12.7 mph - N/A   Clear
8:37 PM 8.6 °F -4.7 °F 3.2 °F 79% 30.11 in 10.0 mi WNW 9.2 mph - N/A   Clear
8:57 PM 8.6 °F -7.0 °F 3.2 °F 79% 30.12 in 10.0 mi WNW 12.7 mph - N/A   Clear
9:17 PM 8.6 °F -7.7 °F 1.4 °F 73% 30.12 in 10.0 mi NW 13.8 mph - N/A   Clear
9:37 PM 8.6 °F -8.9 °F 1.4 °F 73% 30.13 in 10.0 mi NW 16.1 mph 19.6 mph N/A   Clear
9:57 PM 8.6 °F -8.9 °F 1.4 °F 73% 30.14 in 10.0 mi NW 16.1 mph 23.0 mph N/A   Clear
10:17 PM 6.8 °F -10.0 °F 1.4 °F 79% 30.14 in 10.0 mi NW 13.8 mph - N/A   Clear
10:37 PM 6.8 °F -9.3 °F -0.4 °F 72% 30.14 in 10.0 mi NW 12.7 mph - N/A   Clear
10:57 PM 6.8 °F -7.8 °F -0.4 °F 72% 30.14 in 10.0 mi WNW 10.4 mph - N/A   Clear
11:17 PM 6.8 °F -9.3 °F -0.4 °F 72% 30.14 in 10.0 mi WNW 12.7 mph - N/A   Clear
11:37 PM 6.8 °F -8.6 °F -0.4 °F 72% 30.15 in 10.0 mi WNW 11.5 mph - N/A   Clear
11:57 PM 6.8 °F -10.0 °F -0.4 °F 72% 30.15 in 10.0 mi WNW 13.8 mph - N/A   Clear